Weather History for Westhampton Beach, NY

Change the Weather History Date:

Friday, December 7, 2012

  Actual Average Record
Temperature  
Mean Temperature 33 °F -  
Max Temperature 48 °F 45 °F 70 °F (1998)
Min Temperature 18 °F 27 °F 1 °F (2002)
Degree Days  
Heating Degree Days 32    
Moisture  
Dew Point 36 °F    
Average Humidity 84    
Maximum Humidity 100    
Minimum Humidity 58    
Precipitation  
Precipitation 0.06 in - - ()
Sea Level Pressure  
Sea Level Pressure 30.17 in    
Wind  
Wind Speed 1 mph (SW)    
Max Wind Speed 7 mph    
Max Gust Speed -    
Visibility 9 miles    
Events Rain    
Averages and records for this station are not official NWS values.
T = Trace of Precipitation, MM = Missing Value Source: NWS Daily Summary

Daily Weather History Graph

Daily Weather History Graph

Search for Another Location

Airport:

Trip Planner

Search our weather history database for the weather conditions in past years. The results will help you decide how hot, cold, wet, or windy it might be!

Date:

Astronomy

Dec. 07, 2012 Rise Set
Actual Time 7:01 AM EST 4:22 PM EST
Civil Twilight 6:30 AM EST 4:53 PM EST
Nautical Twilight 5:56 AM EST 5:27 PM EST
Astronomical Twilight 5:23 AM EST 6:00 PM EST
Moon 12:15 AM EST (12/7) 12:20 PM EST (12/7)
Length of Visible Light 10h 22m
Length of Day
9h 20m
Last Quarter, 39% of the Moon is Illuminated
Dec 7
Last Quarter
Dec 13
New
Dec 20
First Quarter
Dec 28
Full
Jan 4
Last Quarter

Hourly Weather History & Observations

Time (EST) Temp. Windchill Dew Point Humidity Pressure Visibility Wind Dir Wind Speed Gust Speed Precip Events Conditions
12:53 AM 18.0 °F - 14.0 °F 84% 30.30 in 10.0 mi Calm Calm - N/A   Clear
1:15 AM 19.4 °F - 15.8 °F 86% 30.30 in 10.0 mi Calm Calm - N/A   Mostly Cloudy
1:53 AM 21.0 °F - 17.1 °F 85% 30.30 in 10.0 mi Calm Calm - N/A   Overcast
2:53 AM 27.0 °F - 21.9 °F 81% 30.29 in 10.0 mi Calm Calm - N/A   Overcast
3:53 AM 28.9 °F - 25.0 °F 85% 30.27 in 10.0 mi Calm Calm - N/A   Overcast
4:53 AM 30.9 °F - 26.1 °F 82% 30.25 in 10.0 mi Calm Calm - N/A   Overcast
5:53 AM 32.0 °F 28.7 °F 26.1 °F 79% 30.25 in 10.0 mi NNW 3.5 mph - N/A   Overcast
6:53 AM 34.0 °F - 28.0 °F 79% 30.24 in 10.0 mi Calm Calm - N/A   Overcast
7:53 AM 35.1 °F - 28.9 °F 78% 30.24 in 10.0 mi Calm Calm - N/A   Overcast
8:41 AM 39.2 °F 35.9 °F 28.4 °F 65% 30.25 in 10.0 mi NNW 4.6 mph - N/A   Overcast
8:53 AM 39.9 °F 37.8 °F 28.9 °F 65% 30.26 in 10.0 mi NNW 3.5 mph - N/A   Overcast
9:53 AM 45.0 °F - 33.1 °F 63% 30.24 in 10.0 mi Calm Calm - N/A   Partly Cloudy
10:53 AM 48.0 °F - 34.0 °F 58% 30.21 in 10.0 mi South 6.9 mph - N/A   Overcast
11:53 AM 48.0 °F - 36.0 °F 63% 30.18 in 10.0 mi SSE 4.6 mph - N/A   Overcast
12:53 PM 48.9 °F - 37.0 °F 64% 30.16 in 10.0 mi South 3.5 mph - N/A   Overcast
1:53 PM 46.9 °F - 39.9 °F 77% 30.14 in 10.0 mi SE 3.5 mph - 0.01 in Rain Light Rain
2:53 PM 46.9 °F - 43.0 °F 86% 30.13 in 10.0 mi Calm Calm - 0.01 in Rain Light Rain
3:42 PM 46.4 °F - 44.6 °F 93% 30.12 in 9.0 mi Calm Calm - 0.01 in Rain Light Rain
3:53 PM 46.9 °F - 44.1 °F 90% 30.12 in 5.0 mi Calm Calm - 0.02 in Rain Light Rain
4:25 PM 46.4 °F 45.2 °F 42.8 °F 87% 30.11 in 10.0 mi SW 3.5 mph - 0.00 in   Overcast
4:53 PM 46.0 °F - 43.0 °F 89% 30.12 in 10.0 mi Calm Calm - 0.00 in   Overcast
5:53 PM 45.0 °F - 43.0 °F 93% 30.12 in 4.0 mi Calm Calm - 0.01 in Rain Light Rain
6:42 PM 44.6 °F - 42.8 °F 93% 30.10 in 10.0 mi Calm Calm - 0.00 in Rain Light Rain
6:53 PM 45.0 °F - 43.0 °F 93% 30.11 in 10.0 mi Calm Calm - 0.00 in   Overcast
7:53 PM 46.9 °F - 44.1 °F 90% 30.10 in 8.0 mi Calm Calm - 0.00 in Rain Light Rain
8:53 PM 46.9 °F - 45.0 °F 93% 30.09 in 10.0 mi SW 3.5 mph - 0.00 in   Overcast
9:38 PM 46.4 °F - 46.4 °F 100% 30.09 in 10.0 mi Calm Calm - N/A   Overcast
9:53 PM 46.9 °F - 45.0 °F 93% 30.09 in 10.0 mi Calm Calm - N/A   Overcast
10:45 PM 46.4 °F - 44.6 °F 93% 30.07 in 9.0 mi Calm Calm - N/A   Overcast
10:53 PM 46.9 °F - 45.0 °F 93% 30.07 in 10.0 mi Calm Calm - N/A   Overcast
11:19 PM 46.4 °F - 44.6 °F 93% 30.06 in 8.0 mi Calm Calm - N/A   Overcast
11:45 PM 46.4 °F - 44.6 °F 93% 30.05 in 3.0 mi Calm Calm - 0.01 in Rain Light Rain
11:53 PM 46.9 °F - 45.0 °F 93% 30.06 in 3.0 mi Calm Calm - 0.01 in   Overcast